Volver al catálogo

CZ-2D DEB

ActivoPO
NORAD 44606·DEBRIS·🇨🇳 China

Lanzado Nov 11, 2016 desde Jiuquan Satellite Launch Center

Loading…

Próximos Pases (próximas 24 horas)

TLE

ActualizadoSource: Space-Track

Época: Sep 12, 2026, 00:08 UTC

1 44606U 16068F   26255.00603569  .00000236  00000-0  17341-3 0  9990
2 44606  98.4225 324.3067 0222390 324.9514  33.7182 13.93041183498528

Sigue CZ-2D DEB en tiempo real con AllMySat

Download on the App Store